Flag for Germany Weather past 2 weeks in Wipperfürth, North Rhine-Westphalia, Germany

64 °F

Light rain. Broken clouds.

Feels Like: 64 °F
Forecast: 52 / 60 °F
Wind: 5 mph from Southeast

Location: Koeln / Bonn

Current Time: Oct 6, 2015 at 4:53:02 PM

Latest Report: Oct 6, 2015 at 4:20 PM

Visibility: N/A

Pressure: 29.62 "Hg

Humidity: 94%

Dew point: 63 °F

Location of WipperfürthLocation

Historic Weather in Wipperfürth — Graph


Wipperfürth temperature yesterday

Maximum temperature yesterday: 61 °F (at 1:20 PM)
Minimum temperature yesterday: 50 °F (at 1:50 AM)
Average temperature yesterday: 56 °F

Past Weeks' High & Low Weather Summary

High70 °F (Oct 2, 3:50 PM)100% (Sep 22, 1:20 PM)30.63 "Hg (Sep 22, 1:20 PM)
Low36 °F (Oct 2, 4:50 AM)37% (Sep 30, 4:50 PM)29.53 "Hg (Sep 22, 2:50 PM)
Average54 °F80%30.15 "Hg
* Reported Sep 21 3:20 PM — Oct 6 3:50 PM, Wipperfürth, Weather by CustomWeather, © 2015

Note: Actual official high and low records may vary slightly from our data, if they occured in-between our weather recording intervals... More about our weather records


Wipperfürth weather history for previous 24 hours

Time TempWeatherWind HumidityBarometerVisibility
3:50 PM
Tue, Oct 6
64 °FLots of rain. Partly sunny.14 mph88%29.62 "HgN/A
3:20 PM68 °FPartly sunny.8 mph78%29.62 "HgN/A
2:50 PM68 °FBroken clouds.8 mph73%29.62 "HgN/A
2:20 PM68 °FBroken clouds.8 mph73%29.62 "HgN/A
1:50 PM68 °FBroken clouds.7 mph73%29.62 "HgN/A
1:20 PM66 °FPartly sunny.9 mph78%29.65 "HgN/A
12:50 PM66 °FBroken clouds.9 mph78%29.65 "HgN/A
12:20 PM68 °FBroken clouds.8 mph78%29.65 "HgN/A
11:50 AM64 °FBroken clouds.8 mph83%29.65 "HgN/A
11:20 AM63 °FPartly sunny.8 mph88%29.65 "HgN/A
10:50 AM63 °FPartly sunny.8 mph88%29.65 "HgN/A
10:20 AM63 °FPartly sunny.8 mph88%29.65 "HgN/A
9:50 AM63 °FPartly sunny.10 mph83%29.65 "HgN/A
9:20 AM61 °FPartly sunny.8 mph88%29.62 "HgN/A
8:50 AM61 °FPartly sunny.9 mph88%29.65 "HgN/A
8:20 AM61 °FPassing clouds.9 mph88%29.62 "HgN/A
7:50 AM61 °FPassing clouds.12 mph88%29.62 "HgN/A
7:20 AM61 °FPassing clouds.9 mph88%29.62 "HgN/A
6:20 AM59 °FPassing clouds.10 mph94%29.62 "HgN/A
5:50 AM59 °FOvercast.10 mph94%29.62 "HgN/A
5:20 AM59 °FPartly cloudy.10 mph94%29.62 "HgN/A
4:50 AM57 °FPassing clouds.12 mph100%29.62 "HgN/A
4:20 AM59 °FPartly cloudy.13 mph94%29.62 "HgN/A
3:50 AM57 °FPartly cloudy.12 mph100%29.62 "HgN/A
3:20 AM57 °FPartly cloudy.13 mph100%29.65 "HgN/A
2:50 AM57 °FLight rain. Overcast.9 mph100%29.65 "HgN/A
2:20 AM57 °FRain. Low clouds.9 mph94%29.65 "Hg4 mi
1:50 AM57 °FRain. Overcast.9 mph94%29.65 "Hg4 mi
1:20 AM57 °FRain. Mostly cloudy.8 mph94%29.68 "HgN/A
12:50 AM57 °FLight rain. Overcast.6 mph94%29.68 "HgN/A
12:20 AM57 °FRain. Mostly cloudy.6 mph94%29.71 "HgN/A
11:50 PM
Mon, Oct 5
57 °FRain. Mostly cloudy.6 mph94%29.71 "HgN/A
10:50 PM57 °FLight rain. Clear.7 mph88%29.74 "HgN/A
10:20 PM57 °FLight rain. Overcast.8 mph88%29.77 "HgN/A
9:50 PM59 °FLight rain. Clear.6 mph77%29.77 "HgN/A
9:20 PM59 °FClear.6 mph82%29.77 "Hg10 mi
8:50 PM59 °FClear.6 mph82%29.80 "Hg10 mi
8:20 PM59 °FClear.7 mph82%29.80 "Hg10 mi
7:50 PM59 °FSunny.7 mph82%29.80 "Hg10 mi
7:20 PM59 °FPartly sunny.7 mph77%29.80 "HgN/A
6:50 PM59 °FPartly sunny.7 mph77%29.80 "HgN/A
6:20 PM59 °FBroken clouds.9 mph77%29.83 "HgN/A
5:50 PM61 °FBroken clouds.12 mph77%29.83 "HgN/A
5:20 PM61 °FPartly sunny.9 mph72%29.83 "HgN/A
4:50 PM61 °FPartly sunny.13 mph72%29.86 "HgN/A
4:20 PM61 °FPartly sunny.12 mph77%29.86 "HgN/A
Weather by CustomWeather, © 2015

See weather overviewHow to use our weather pages